TimeEDT,TemperatureF,Dew PointF,Humidity,Sea Level PressureIn,VisibilityMPH,Wind Direction,Wind SpeedMPH,Gust SpeedMPH,PrecipitationIn,Events,Conditions,WindDirDegrees,DateUTC
12:53 AM,73.9,73.0,97,29.99,10.0,Calm,Calm,-,N/A,,Scattered Clouds,0,2012-10-08 04:53:00
1:53 AM,75.0,73.0,94,29.97,10.0,Calm,Calm,-,N/A,,Mostly Cloudy,0,2012-10-08 05:53:00
2:53 AM,75.0,73.0,94,29.96,10.0,Calm,Calm,-,N/A,,Mostly Cloudy,0,2012-10-08 06:53:00
3:53 AM,73.9,73.0,97,29.96,10.0,Calm,Calm,-,N/A,,Mostly Cloudy,0,2012-10-08 07:53:00
4:53 AM,75.0,73.9,96,29.96,10.0,North,4.6,-,N/A,,Mostly Cloudy,360,2012-10-08 08:53:00
5:53 AM,75.0,73.9,96,29.99,10.0,NNW,3.5,-,N/A,,Scattered Clouds,340,2012-10-08 09:53:00
6:53 AM,75.0,73.9,96,29.99,10.0,NNE,3.5,-,N/A,,Mostly Cloudy,30,2012-10-08 10:53:00
7:53 AM,75.9,73.9,94,30.02,10.0,NNE,3.5,-,N/A,,Overcast,20,2012-10-08 11:53:00
8:53 AM,78.1,75.0,90,30.02,10.0,North,3.5,-,N/A,,Overcast,360,2012-10-08 12:53:00
9:53 AM,79.0,75.0,88,30.04,10.0,East,4.6,-,N/A,,Mostly Cloudy,80,2012-10-08 13:53:00
10:53 AM,80.1,75.9,87,30.05,10.0,East,3.5,-,N/A,,Overcast,90,2012-10-08 14:53:00
11:53 AM,84.0,75.9,76,30.04,10.0,ESE,8.1,-,N/A,,Overcast,110,2012-10-08 15:53:00
12:53 PM,82.9,73.9,74,30.01,10.0,SE,8.1,-,N/A,,Overcast,130,2012-10-08 16:53:00
1:53 PM,84.0,72.0,67,29.98,10.0,SE,10.4,-,N/A,,Mostly Cloudy,140,2012-10-08 17:53:00
2:53 PM,87.1,72.0,61,29.95,10.0,SSE,6.9,-,N/A,,Mostly Cloudy,160,2012-10-08 18:53:00
3:53 PM,86.0,71.1,61,29.94,10.0,SSE,4.6,-,N/A,,Mostly Cloudy,160,2012-10-08 19:53:00
4:53 PM,84.0,72.0,67,29.94,10.0,South,3.5,-,0.00,Rain,Light Rain,170,2012-10-08 20:53:00
5:26 PM,80.6,73.4,79,29.96,10.0,NNW,11.5,-,0.00,Rain-Thunderstorm,Light Thunderstorms and Rain,330,2012-10-08 21:26:00
5:53 PM,78.1,75.0,90,29.97,9.0,NNW,4.6,-,0.05,Rain-Thunderstorm,Light Thunderstorms and Rain,330,2012-10-08 21:53:00
6:16 PM,73.4,71.6,94,29.98,3.0,West,5.8,-,0.26,Rain-Thunderstorm,Heavy Thunderstorms and Rain,270,2012-10-08 22:16:00
6:33 PM,75.2,71.6,89,29.97,10.0,Calm,Calm,-,0.29,Thunderstorm,Thunderstorm,0,2012-10-08 22:33:00
6:53 PM,73.9,73.0,97,29.97,10.0,Calm,Calm,-,0.29,Thunderstorm,Thunderstorm,0,2012-10-08 22:53:00
7:14 PM,75.2,73.4,94,29.98,10.0,West,5.8,-,N/A,,Overcast,270,2012-10-08 23:14:00
7:53 PM,75.0,73.0,94,29.97,10.0,Calm,Calm,-,0.00,Rain,Light Rain,0,2012-10-08 23:53:00
8:53 PM,75.9,73.9,94,30.00,10.0,Calm,Calm,-,0.00,,Mostly Cloudy,0,2012-10-09 00:53:00
9:53 PM,75.0,73.9,96,30.02,10.0,Calm,Calm,-,N/A,,Scattered Clouds,0,2012-10-09 01:53:00
10:53 PM,73.9,73.0,97,30.04,10.0,SW,3.5,-,N/A,,Scattered Clouds,220,2012-10-09 02:53:00
11:53 PM,73.9,73.0,97,30.03,10.0,Calm,Calm,-,N/A,,Scattered Clouds,0,2012-10-09 03:53:00